Regional Weather Roundup
Issued by NWS Albany, NY

Home | Current Version | Previous Version | Graphics & Text | Print | Product List | Glossary Off
Versions: 1 2 3 4 5 6 7 8 9 10 11 12 13 14 15 16 17 18 19 20 21 22 23 24 25 26 27 28 29 30 31 32 33 34 35 36 37 38 39 40 41 42 43 44 45 46 47 48 49 50

000
ASUS41 KALY 202210
RWRALY

NEW YORK STATE HOURLY WEATHER ROUNDUP
NATIONAL WEATHER SERVICE ALBANY NY
500 PM EST THU NOV 20 2014

NOTE: "FAIR" INDICATES FEW OR NO CLOUDS BELOW 12,000 FEET WITH NO
SIGNIFICANT WEATHER AND/OR NO OBSTRUCTIONS TO VISIBILITY.

NYZ032-033-038>043-046>054-057>066-NYZ062>081-202300-
EAST


CITY           SKY/WX    TMP DP  RH WIND       PRES   REMARKS
ALBANY         FLURRIES  30  21  69 NW17      29.87R WCI  18
GLENS FALLS    PTCLDY    30  13  49 W6        29.85R WCI  24
POUGHKEEPSIE   CLEAR     39  11  31 W14G24    29.85R WCI  31
NEWBURGH       CLEAR     36  14  41 W16G23    29.85R WCI  26
MONTGOMERY     CLEAR     37  11  34 W10       29.84R WCI  30
WHITE PLAINS   PTCLDY    40  17  39 W7        29.84R
ISLIP          PTCLDY    43  23  45 W14       29.85R
NEW YORK CITY  PTCLDY    44  17  33 W18G28    29.87R
CENTRAL PARK   CLEAR     44  17  33 VRB3G21   29.89R
$$

NYZ005>009-017-018-044>046-055-056-202300-
CENTRAL


CITY           SKY/WX    TMP DP  RH WIND       PRES   REMARKS
FULTON         CLOUDY    28  10  46 SW16G22   29.86R WCI  16
SYRACUSE       FLURRIES  26  20  77 SW14      29.89R WCI  14
ROME           CLOUDY    28  14  55 W13       29.89R WCI  17
ELMIRA         MOCLDY    30   8  39 W13G22    29.88R WCI  20
BINGHAMTON     MOCLDY    27   8  44 W10       29.81R WCI  17
MONTICELLO     MOCLDY    30  10  43 W6        29.83R WCI  24
$$

NYZ026>034-041>043-202300-
NORTH


CITY           SKY/WX    TMP DP  RH WIND       PRES   REMARKS
WATERTOWN      MOCLDY    30  12  47 W24G36    29.81R WCI  16
FORT DRUM      NOT AVBL
MASSENA        CLEAR     28  11  48 SW12      29.76R WCI  18
SARANAC LAKE   LGT SNOW  21  16  81 SW12G22   29.69R WCI   9
PLATTSBURGH    CLEAR     29  15  56 SW8G21    29.77R WCI  21
$$

NYZ001>004-010>016-019>021-202300-
WEST


CITY           SKY/WX    TMP DP  RH WIND       PRES   REMARKS
NIAGARA FALLS  PTCLDY    23  14  68 W17       29.88R WCI   9
BUFFALO        MOCLDY    25  11  55 W14G23    29.88R WCI  13
DUNKIRK        HVY SNOW  22  21  96 SW17      29.91R VSB 1/4 WCI   8
JAMESTOWN      CLOUDY    21  10  63 SW17G24   29.86R WCI   7
WELLSVILLE     PTCLDY    22   5  48 SW16G23   29.83R WCI   8
ROCHESTER      FLURRIES  27  16  63 W14       29.88R WCI  16
PENN YAN       CLOUDY    25  19  78 N5        29.86R WCI  19
$$

             KEY
       WCI = WIND CHILL INDEX
       VSB = VISIBILITY
       HX  = HEAT INDEX
$$



USA.gov is the U.S. government's official web portal to all federal, state and local government web resources and services.